| time (UTC) | temp F | wind direction | speed MPH | gust MPH | rain 1hr in | rain 24hr in | rain mn in | humidity % | barometer mb |
| 20260507220355 | 65 | 357 | 0.0 | 6.0 | 0.00 | 0.00 | 0.00 | 36 | 1008.4 |
| 20260507215852 | 65 | 294 | 1.0 | 9.0 | 0.00 | 0.00 | 0.00 | 35 | 1008.5 |
| 20260507215348 | 67 | 341 | 1.0 | 3.0 | 0.00 | 0.00 | 0.00 | 36 | 1008.2 |
| 20260507214845 | 65 | 15 | 3.0 | 6.0 | 0.00 | 0.00 | 0.00 | 35 | 1008.3 |
| 20260507214343 | 66 | 64 | 3.0 | 9.0 | 0.00 | 0.00 | 0.00 | 34 | 1008.2 |
| 20260507213843 | 65 | 27 | 2.0 | 7.0 | 0.00 | 0.00 | 0.00 | 36 | 1008.1 |
| 20260507213335 | 66 | 49 | 3.0 | 6.0 | 0.00 | 0.00 | 0.00 | 35 | 1008.2 |
| 20260507212832 | 66 | 32 | 4.0 | 6.0 | 0.00 | 0.00 | 0.00 | 33 | 1008.1 |
| 20260507212328 | 65 | 287 | 4.0 | 6.0 | 0.00 | 0.00 | 0.00 | 34 | 1008.1 |
| 20260507211824 | 67 | 268 | 3.0 | 3.0 | 0.00 | 0.00 | 0.00 | 34 | 1008.0 |
| 20260507211321 | 67 | 327 | 3.0 | 6.0 | 0.00 | 0.00 | 0.00 | 32 | 1007.9 |
| 20260507210817 | 64 | 355 | 1.0 | 3.0 | 0.00 | 0.00 | 0.00 | 37 | 1008.1 |
| 20260507210310 | 65 | 307 | 3.0 | 7.0 | 0.00 | 0.00 | 0.00 | 35 | 1007.7 |
| 20260507205805 | 67 | 336 | 0.0 | 2.0 | 0.00 | 0.00 | 0.00 | 36 | 1007.8 |
| 20260507205306 | 66 | 276 | 1.0 | 6.0 | 0.00 | 0.00 | 0.00 | 37 | 1007.9 |
| 20260507204759 | 67 | 337 | 3.0 | 4.0 | 0.00 | 0.00 | 0.00 | 34 | 1007.9 |
| 20260507204256 | 68 | 337 | 2.0 | 7.0 | 0.00 | 0.00 | 0.00 | 33 | 1007.9 |
| 20260507203754 | 69 | 328 | 3.0 | 6.0 | 0.00 | 0.00 | 0.00 | 33 | 1007.8 |
| 20260507203252 | 68 | 352 | 3.0 | 10.0 | 0.00 | 0.00 | 0.00 | 35 | 1008.0 |
| 20260507202748 | 67 | 5 | 1.0 | 4.0 | 0.00 | 0.00 | 0.00 | 38 | 1008.0 |
| 20260507202244 | 67 | 345 | 3.0 | 7.0 | 0.00 | 0.00 | 0.00 | 34 | 1008.1 |
| 20260507201738 | 67 | 357 | 1.0 | 8.0 | 0.00 | 0.00 | 0.00 | 35 | 1007.9 |
| 20260507201236 | 68 | 341 | 1.0 | 4.0 | 0.00 | 0.00 | 0.00 | 37 | 1008.0 |
| 20260507200732 | 68 | 221 | 2.0 | 6.0 | 0.00 | 0.00 | 0.00 | 36 | 1007.9 |
| 20260507200228 | 67 | 46 | 4.0 | 6.0 | 0.00 | 0.00 | 0.00 | 33 | 1007.9 |
| 20260507195724 | 68 | 300 | 2.0 | 4.0 | 0.00 | 0.00 | 0.00 | 36 | 1008.1 |
| 20260507195222 | 69 | 346 | 2.0 | 8.0 | 0.00 | 0.00 | 0.00 | 35 | 1008.0 |
| 20260507194719 | 69 | 34 | 3.0 | 9.0 | 0.00 | 0.00 | 0.00 | 35 | 1008.1 |
| 20260507194215 | 68 | 276 | 2.0 | 8.0 | 0.00 | 0.00 | 0.00 | 36 | 1008.0 |
| 20260507193712 | 68 | 278 | 2.0 | 7.0 | 0.00 | 0.00 | 0.00 | 33 | 1008.1 |
| 20260507193208 | 68 | 295 | 2.0 | 4.0 | 0.00 | 0.00 | 0.00 | 35 | 1008.2 |
| 20260507192704 | 69 | 334 | 7.0 | 11.0 | 0.00 | 0.00 | 0.00 | 34 | 1007.9 |
| 20260507192156 | 70 | 353 | 3.0 | 6.0 | 0.00 | 0.00 | 0.00 | 36 | 1007.9 |
| 20260507191651 | 67 | 326 | 3.0 | 7.0 | 0.00 | 0.00 | 0.00 | 36 | 1008.1 |
| 20260507191148 | 70 | 22 | 4.0 | 11.0 | 0.00 | 0.00 | 0.00 | 35 | 1007.8 |
| 20260507190645 | 70 | 44 | 2.0 | 6.0 | 0.00 | 0.00 | 0.00 | 34 | 1008.1 |
| 20260507190144 | 69 | 274 | 2.0 | 7.0 | 0.00 | 0.00 | 0.00 | 36 | 1008.0 |
| 20260507185642 | 68 | 219 | 5.0 | 7.0 | 0.00 | 0.00 | 0.00 | 37 | 1008.1 |
| 20260507185138 | 69 | 15 | 1.0 | 8.0 | 0.00 | 0.00 | 0.00 | 37 | 1008.0 |
| 20260507184636 | 69 | 301 | 5.0 | 7.0 | 0.00 | 0.00 | 0.00 | 37 | 1008.0 |
| 20260507184134 | 68 | 335 | 1.0 | 2.0 | 0.00 | 0.00 | 0.00 | 36 | 1008.1 |
| 20260507183630 | 69 | 31 | 5.0 | 7.0 | 0.00 | 0.00 | 0.00 | 34 | 1008.2 |
| 20260507183127 | 68 | 28 | 3.0 | 6.0 | 0.00 | 0.00 | 0.00 | 41 | 1008.0 |
| 20260507182624 | 68 | 35 | 4.0 | 6.0 | 0.00 | 0.00 | 0.00 | 34 | 1008.1 |
| 20260507182120 | 68 | 236 | 2.0 | 4.0 | 0.00 | 0.00 | 0.00 | 36 | 1008.2 |
| 20260507181617 | 68 | 238 | 6.0 | 9.0 | 0.00 | 0.00 | 0.00 | 35 | 1008.1 |
| 20260507181113 | 68 | 246 | 4.0 | 4.0 | 0.00 | 0.00 | 0.00 | 36 | 1008.3 |
| 20260507180609 | 67 | 250 | 3.0 | 7.0 | 0.00 | 0.00 | 0.00 | 37 | 1008.4 |
| 20260507180107 | 67 | 249 | 2.0 | 8.0 | 0.00 | 0.00 | 0.00 | 39 | 1008.3 |
| 20260507175602 | 67 | 308 | 3.0 | 6.0 | 0.00 | 0.00 | 0.00 | 40 | 1008.5 |
| 20260507175100 | 68 | 311 | 2.0 | 3.0 | 0.00 | 0.00 | 0.00 | 37 | 1008.6 |
| 20260507174557 | 68 | 308 | 4.0 | 7.0 | 0.00 | 0.00 | 0.00 | 37 | 1008.7 |
| 20260507174055 | 68 | 225 | 3.0 | 3.0 | 0.00 | 0.00 | 0.00 | 37 | 1008.6 |
| 20260507173552 | 67 | 5 | 2.0 | 7.0 | 0.00 | 0.00 | 0.00 | 42 | 1008.6 |
| 20260507173049 | 67 | 185 | 7.0 | 10.0 | 0.00 | 0.00 | 0.00 | 41 | 1008.8 |
| 20260507172544 | 67 | 259 | 2.0 | 9.0 | 0.00 | 0.00 | 0.00 | 42 | 1008.9 |
| 20260507172042 | 66 | 32 | 1.0 | 8.0 | 0.00 | 0.00 | 0.00 | 49 | 1008.9 |
| 20260507171537 | 66 | 13 | 2.0 | 6.0 | 0.00 | 0.00 | 0.00 | 40 | 1009.1 |
| 20260507171034 | 67 | 251 | 7.0 | 11.0 | 0.00 | 0.00 | 0.00 | 42 | 1009.0 |
| 20260507170531 | 65 | 289 | 2.0 | 4.0 | 0.00 | 0.00 | 0.00 | 41 | 1009.0 |
| 20260507170028 | 67 | 17 | 4.0 | 8.0 | 0.00 | 0.00 | 0.00 | 42 | 1009.2 |
| 20260507165524 | 66 | 338 | 2.0 | 7.0 | 0.00 | 0.00 | 0.00 | 41 | 1009.5 |
| 20260507165020 | 66 | 5 | 4.0 | 6.0 | 0.00 | 0.00 | 0.00 | 41 | 1009.5 |
| 20260507164516 | 66 | 266 | 1.0 | 4.0 | 0.00 | 0.00 | 0.00 | 47 | 1009.5 |
| 20260507164014 | 66 | 328 | 4.0 | 6.0 | 0.00 | 0.00 | 0.00 | 40 | 1009.7 |
| 20260507163511 | 65 | 227 | 4.0 | 7.0 | 0.00 | 0.00 | 0.00 | 43 | 1009.6 |
| 20260507163009 | 65 | 309 | 4.0 | 6.0 | 0.00 | 0.00 | 0.00 | 47 | 1009.8 |
| 20260507162508 | 64 | 188 | 1.0 | 4.0 | 0.00 | 0.00 | 0.00 | 51 | 1009.8 |
| 20260507162006 | 64 | 281 | 1.0 | 4.0 | 0.00 | 0.00 | 0.00 | 44 | 1010.1 |
| 20260507161502 | 63 | 348 | 2.0 | 7.0 | 0.00 | 0.00 | 0.00 | 48 | 1010.1 |
| 20260507160959 | 62 | 152 | 0.0 | 3.0 | 0.00 | 0.00 | 0.00 | 50 | 1010.1 |
| 20260507160455 | 61 | 203 | 3.0 | 6.0 | 0.00 | 0.00 | 0.00 | 48 | 1009.9 |
| 20260507155950 | 61 | 153 | 2.0 | 7.0 | 0.00 | 0.00 | 0.00 | 47 | 1010.2 |
| 20260507155447 | 61 | 157 | 5.0 | 6.0 | 0.00 | 0.00 | 0.00 | 49 | 1010.2 |
| 20260507154944 | 60 | 336 | 1.0 | 4.0 | 0.00 | 0.00 | 0.00 | 47 | 1010.3 |
| 20260507154440 | 60 | 259 | 2.0 | 2.0 | 0.00 | 0.00 | 0.00 | 49 | 1010.4 |
| 20260507153938 | 60 | 296 | 1.0 | 4.0 | 0.00 | 0.00 | 0.00 | 47 | 1010.6 |
| 20260507153435 | 61 | 223 | 3.0 | 6.0 | 0.00 | 0.00 | 0.00 | 49 | 1010.6 |
| 20260507152931 | 59 | 297 | 2.0 | 3.0 | 0.00 | 0.00 | 0.00 | 50 | 1010.7 |
| 20260507152427 | 60 | 27 | 3.0 | 3.0 | 0.00 | 0.00 | 0.00 | 48 | 1010.7 |
| 20260507151923 | 57 | 295 | 0.0 | 4.0 | 0.00 | 0.00 | 0.00 | 54 | 1010.7 |
| 20260507151420 | 57 | 18 | 1.0 | 6.0 | 0.00 | 0.00 | 0.00 | 51 | 1010.8 |
| 20260507150917 | 58 | 26 | 3.0 | 4.0 | 0.00 | 0.00 | 0.00 | 50 | 1011.0 |
| 20260507150413 | 58 | 30 | 3.0 | 4.0 | 0.00 | 0.00 | 0.00 | 50 | 1010.9 |
| 20260507145910 | 59 | 52 | 2.0 | 3.0 | 0.00 | 0.00 | 0.00 | 54 | 1011.1 |
| 20260507145406 | 57 | 12 | 1.0 | 3.0 | 0.00 | 0.00 | 0.00 | 54 | 1011.1 |
| 20260507144903 | 58 | 21 | 0.0 | 3.0 | 0.00 | 0.00 | 0.00 | 54 | 1011.2 |
| 20260507144400 | 56 | 194 | 4.0 | 4.0 | 0.00 | 0.00 | 0.00 | 53 | 1011.0 |
| 20260507143857 | 55 | 283 | 2.0 | 6.0 | 0.00 | 0.00 | 0.00 | 55 | 1011.6 |
| 20260507143354 | 55 | 48 | 1.0 | 3.0 | 0.00 | 0.00 | 0.00 | 60 | 1011.5 |
| 20260507142850 | 55 | 58 | 1.0 | 2.0 | 0.00 | 0.00 | 0.00 | 59 | 1011.7 |
| 20260507142347 | 55 | 29 | 0.0 | 3.0 | 0.00 | 0.00 | 0.00 | 59 | 1011.7 |
| 20260507141843 | 55 | 4 | 1.0 | 3.0 | 0.00 | 0.00 | 0.00 | 59 | 1011.6 |
| 20260507141340 | 55 | 358 | 1.0 | 2.0 | 0.00 | 0.00 | 0.00 | 64 | 1011.6 |
| 20260507140837 | 54 | 70 | 2.0 | 3.0 | 0.00 | 0.00 | 0.00 | 62 | 1011.9 |
| 20260507140333 | 54 | 37 | 2.0 | 4.0 | 0.00 | 0.00 | 0.00 | 63 | 1012.0 |
| 20260507135831 | 55 | 67 | 1.0 | 2.0 | 0.00 | 0.00 | 0.00 | 61 | 1011.9 |
| 20260507135328 | 55 | 16 | 3.0 | 3.0 | 0.00 | 0.00 | 0.00 | 61 | 1012.2 |
| 20260507134825 | 54 | 24 | 0.0 | 1.0 | 0.00 | 0.00 | 0.00 | 65 | 1012.0 |
| 20260507134321 | 53 | 342 | 0.0 | 2.0 | 0.00 | 0.00 | 0.00 | 64 | 1012.2 |
| 20260507133817 | 54 | 65 | 1.0 | 1.0 | 0.00 | 0.00 | 0.00 | 64 | 1012.1 |
| 20260507133313 | 53 | 10 | 0.0 | 1.0 | 0.00 | 0.00 | 0.00 | 67 | 1012.1 |
| 20260507132812 | 53 | 50 | 4.0 | 4.0 | 0.00 | 0.00 | 0.00 | 67 | 1012.2 |
| 20260507132308 | 53 | 54 | 0.0 | 4.0 | 0.00 | 0.00 | 0.00 | 65 | 1012.4 |
| 20260507131805 | 54 | 67 | 2.0 | 3.0 | 0.00 | 0.00 | 0.00 | 68 | 1012.4 |
| 20260507131302 | 53 | 30 | 1.0 | 4.0 | 0.00 | 0.00 | 0.00 | 70 | 1012.4 |
| 20260507130758 | 52 | 43 | 2.0 | 4.0 | 0.00 | 0.00 | 0.00 | 68 | 1012.4 |
| 20260507130256 | 52 | 80 | 2.0 | 3.0 | 0.00 | 0.00 | 0.00 | 70 | 1012.4 |
| 20260507125755 | 52 | 357 | 3.0 | 4.0 | 0.00 | 0.00 | 0.00 | 69 | 1012.4 |
| 20260507125252 | 52 | 71 | 2.0 | 3.0 | 0.00 | 0.00 | 0.00 | 69 | 1012.4 |
| 20260507124749 | 52 | 36 | 2.0 | 4.0 | 0.00 | 0.00 | 0.00 | 70 | 1012.4 |
| 20260507124245 | 52 | 35 | 4.0 | 4.0 | 0.00 | 0.00 | 0.00 | 68 | 1012.2 |
| 20260507123744 | 52 | 50 | 4.0 | 6.0 | 0.00 | 0.00 | 0.00 | 67 | 1012.4 |
| 20260507123241 | 52 | 34 | 2.0 | 2.0 | 0.00 | 0.00 | 0.00 | 70 | 1012.4 |
| 20260507122736 | 52 | 34 | 3.0 | 4.0 | 0.00 | 0.00 | 0.00 | 68 | 1012.2 |
| 20260507122232 | 52 | 69 | 1.0 | 3.0 | 0.00 | 0.00 | 0.00 | 69 | 1012.4 |
| 20260507121728 | 52 | 45 | 1.0 | 3.0 | 0.00 | 0.00 | 0.00 | 69 | 1012.3 |
| 20260507121224 | 51 | 43 | 2.0 | 6.0 | 0.00 | 0.00 | 0.00 | 68 | 1012.4 |
| 20260507120720 | 52 | 16 | 3.0 | 4.0 | 0.00 | 0.00 | 0.00 | 71 | 1012.2 |
| 20260507120218 | 51 | 49 | 2.0 | 6.0 | 0.00 | 0.00 | 0.00 | 73 | 1012.4 |
| 20260507115713 | 51 | 3 | 4.0 | 7.0 | 0.00 | 0.00 | 0.00 | 71 | 1012.2 |
| 20260507115209 | 51 | 349 | 6.0 | 9.0 | 0.00 | 0.00 | 0.00 | 72 | 1012.3 |
| 20260507114705 | 51 | 26 | 6.0 | 7.0 | 0.00 | 0.00 | 0.00 | 72 | 1012.1 |
| 20260507114203 | 51 | 355 | 6.0 | 7.0 | 0.00 | 0.00 | 0.00 | 71 | 1012.1 |
| 20260507113700 | 51 | 17 | 3.0 | 6.0 | 0.00 | 0.00 | 0.00 | 71 | 1012.0 |
| 20260507113157 | 51 | 50 | 2.0 | 4.0 | 0.00 | 0.00 | 0.00 | 71 | 1012.1 |
| 20260507112654 | 51 | 53 | 2.0 | 4.0 | 0.00 | 0.00 | 0.00 | 71 | 1012.0 |
| 20260507112151 | 51 | 35 | 5.0 | 6.0 | 0.00 | 0.00 | 0.00 | 70 | 1012.0 |
| 20260507111648 | 51 | 36 | 1.0 | 3.0 | 0.00 | 0.00 | 0.00 | 72 | 1011.9 |
| 20260507111145 | 51 | 49 | 2.0 | 3.0 | 0.00 | 0.00 | 0.00 | 72 | 1011.8 |
| 20260507110641 | 51 | 46 | 1.0 | 2.0 | 0.00 | 0.00 | 0.00 | 74 | 1011.6 |
| 20260507110138 | 51 | 47 | 2.0 | 2.0 | 0.00 | 0.00 | 0.00 | 75 | 1011.6 |
| 20260507105635 | 51 | 43 | 1.0 | 1.0 | 0.00 | 0.00 | 0.00 | 77 | 1011.7 |
| 20260507105131 | 51 | 27 | 1.0 | 2.0 | 0.00 | 0.00 | 0.00 | 76 | 1011.7 |
| 20260507104628 | 51 | 26 | 3.0 | 3.0 | 0.00 | 0.00 | 0.00 | 77 | 1011.4 |
| 20260507104125 | 51 | 36 | 2.0 | 2.0 | 0.00 | 0.00 | 0.00 | 78 | 1011.5 |
| 20260507103621 | 51 | 57 | 1.0 | 3.0 | 0.00 | 0.00 | 0.00 | 79 | 1011.5 |
| 20260507103118 | 51 | 15 | 1.0 | 2.0 | 0.00 | 0.00 | 0.00 | 79 | 1011.5 |
| 20260507102614 | 52 | 25 | 2.0 | 3.0 | 0.00 | 0.00 | 0.00 | 79 | 1011.3 |
| 20260507102110 | 52 | 62 | 2.0 | 3.0 | 0.00 | 0.00 | 0.00 | 79 | 1011.2 |
| 20260507101606 | 52 | 15 | 3.0 | 3.0 | 0.00 | 0.00 | 0.00 | 79 | 1011.3 |
| 20260507101102 | 52 | 48 | 3.0 | 3.0 | 0.00 | 0.00 | 0.00 | 79 | 1011.2 |
| 20260507100559 | 52 | 47 | 2.0 | 3.0 | 0.00 | 0.00 | 0.00 | 79 | 1010.9 |
| 20260507100058 | 52 | 21 | 3.0 | 4.0 | 0.00 | 0.00 | 0.00 | 80 | 1010.6 |
| 20260507095555 | 52 | 27 | 2.0 | 4.0 | 0.00 | 0.00 | 0.00 | 80 | 1011.0 |
| 20260507095052 | 52 | 40 | 2.0 | 3.0 | 0.00 | 0.00 | 0.00 | 80 | 1010.9 |
| 20260507094548 | 52 | 36 | 1.0 | 2.0 | 0.00 | 0.00 | 0.00 | 81 | 1011.2 |
| 20260507094045 | 52 | 10 | 1.0 | 2.0 | 0.00 | 0.00 | 0.00 | 80 | 1011.1 |
| 20260507093543 | 51 | 17 | 0.0 | 0.0 | 0.00 | 0.00 | 0.00 | 83 | 1011.1 |
| 20260507093041 | 52 | 40 | 0.0 | 0.0 | 0.00 | 0.00 | 0.00 | 81 | 1010.8 |
| 20260507092537 | 52 | 40 | 0.0 | 0.0 | 0.00 | 0.00 | 0.00 | 80 | 1011.0 |
| 20260507092034 | 52 | 101 | 1.0 | 1.0 | 0.00 | 0.00 | 0.00 | 80 | 1011.0 |
| 20260507091531 | 51 | 102 | 0.0 | 0.0 | 0.00 | 0.00 | 0.00 | 82 | 1011.0 |
| 20260507091027 | 52 | 102 | 0.0 | 0.0 | 0.00 | 0.00 | 0.00 | 82 | 1010.8 |
| 20260507090523 | 52 | 102 | 0.0 | 0.0 | 0.00 | 0.00 | 0.00 | 81 | 1010.8 |
| 20260507090020 | 52 | 102 | 0.0 | 0.0 | 0.00 | 0.00 | 0.00 | 82 | 1010.8 |
| 20260507085517 | 52 | 102 | 0.0 | 0.0 | 0.00 | 0.00 | 0.00 | 80 | 1010.6 |
| 20260507085014 | 52 | 102 | 0.0 | 0.0 | 0.00 | 0.00 | 0.00 | 79 | 1011.0 |
| 20260507084510 | 52 | 102 | 0.0 | 0.0 | 0.00 | 0.00 | 0.00 | 80 | 1011.0 |
| 20260507084007 | 52 | 102 | 0.0 | 0.0 | 0.00 | 0.00 | 0.00 | 81 | 1011.2 |
| 20260507083503 | 52 | 102 | 0.0 | 0.0 | 0.00 | 0.00 | 0.00 | 80 | 1011.1 |
| 20260507083000 | 52 | 102 | 0.0 | 0.0 | 0.00 | 0.00 | 0.00 | 79 | 1011.2 |
| 20260507082456 | 52 | 102 | 0.0 | 0.0 | 0.00 | 0.00 | 0.00 | 79 | 1011.2 |
| 20260507081953 | 53 | 102 | 0.0 | 0.0 | 0.00 | 0.00 | 0.00 | 76 | 1010.9 |
| 20260507081449 | 53 | 102 | 0.0 | 0.0 | 0.00 | 0.00 | 0.00 | 76 | 1010.9 |
| 20260507080946 | 53 | 103 | 0.0 | 1.0 | 0.00 | 0.00 | 0.00 | 76 | 1010.9 |
| 20260507080442 | 53 | 103 | 0.0 | 1.0 | 0.00 | 0.00 | 0.00 | 75 | 1011.1 |
| 20260507075937 | 53 | 102 | 1.0 | 1.0 | 0.00 | 0.00 | 0.00 | 75 | 1011.1 |
| 20260507075434 | 53 | 97 | 1.0 | 1.0 | 0.00 | 0.00 | 0.00 | 75 | 1011.1 |
| 20260507074931 | 53 | 29 | 0.0 | 0.0 | 0.00 | 0.00 | 0.00 | 76 | 1011.1 |
| 20260507074428 | 53 | 28 | 0.0 | 0.0 | 0.00 | 0.00 | 0.00 | 75 | 1011.0 |
| 20260507073925 | 53 | 28 | 0.0 | 0.0 | 0.00 | 0.00 | 0.00 | 75 | 1010.8 |
| 20260507073422 | 53 | 28 | 0.0 | 0.0 | 0.00 | 0.00 | 0.00 | 74 | 1010.7 |
| 20260507072919 | 53 | 29 | 1.0 | 2.0 | 0.00 | 0.00 | 0.00 | 73 | 1010.6 |
| 20260507072416 | 53 | 68 | 0.0 | 1.0 | 0.00 | 0.00 | 0.00 | 71 | 1010.9 |
| 20260507071914 | 53 | 57 | 0.0 | 0.0 | 0.00 | 0.00 | 0.00 | 71 | 1010.8 |
| 20260507071411 | 53 | 65 | 1.0 | 2.0 | 0.00 | 0.00 | 0.00 | 71 | 1010.8 |
| 20260507070906 | 53 | 65 | 0.0 | 1.0 | 0.00 | 0.00 | 0.00 | 72 | 1010.8 |
| 20260507070404 | 53 | 62 | 1.0 | 3.0 | 0.00 | 0.00 | 0.00 | 72 | 1011.2 |
| 20260507065901 | 53 | 70 | 0.0 | 1.0 | 0.00 | 0.00 | 0.00 | 73 | 1010.9 |
| 20260507065357 | 53 | 68 | 0.0 | 0.0 | 0.00 | 0.00 | 0.00 | 73 | 1010.9 |
| 20260507064855 | 53 | 68 | 0.0 | 0.0 | 0.00 | 0.00 | 0.00 | 73 | 1010.7 |
| 20260507064353 | 53 | 68 | 0.0 | 0.0 | 0.00 | 0.00 | 0.00 | 73 | 1010.8 |
| 20260507063851 | 53 | 69 | 0.0 | 0.0 | 0.00 | 0.00 | 0.00 | 73 | 1010.9 |
| 20260507063347 | 53 | 68 | 0.0 | 0.0 | 0.00 | 0.00 | 0.00 | 73 | 1011.1 |
| 20260507062844 | 53 | 68 | 0.0 | 1.0 | 0.00 | 0.00 | 0.00 | 72 | 1011.1 |
| 20260507062341 | 53 | 62 | 1.0 | 2.0 | 0.00 | 0.00 | 0.00 | 72 | 1011.3 |
| 20260507061839 | 53 | 37 | 2.0 | 3.0 | 0.00 | 0.00 | 0.00 | 74 | 1011.4 |
| 20260507061337 | 54 | 44 | 1.0 | 2.0 | 0.00 | 0.00 | 0.00 | 72 | 1011.3 |
| 20260507060835 | 54 | 45 | 1.0 | 2.0 | 0.00 | 0.00 | 0.00 | 73 | 1011.4 |
| 20260507060331 | 53 | 38 | 3.0 | 3.0 | 0.00 | 0.00 | 0.00 | 73 | 1011.6 |
| 20260507055828 | 53 | 5 | 1.0 | 2.0 | 0.00 | 0.00 | 0.00 | 74 | 1011.7 |
| 20260507055323 | 54 | 44 | 2.0 | 6.0 | 0.00 | 0.00 | 0.00 | 73 | 1011.5 |
| 20260507054820 | 54 | 55 | 2.0 | 6.0 | 0.00 | 0.00 | 0.00 | 73 | 1011.7 |
| 20260507054316 | 54 | 47 | 4.0 | 6.0 | 0.00 | 0.00 | 0.00 | 73 | 1011.6 |
| 20260507053814 | 54 | 75 | 1.0 | 3.0 | 0.00 | 0.00 | 0.00 | 74 | 1011.8 |
| 20260507053311 | 54 | 48 | 4.0 | 6.0 | 0.00 | 0.00 | 0.00 | 74 | 1011.8 |
| 20260507052810 | 54 | 36 | 3.0 | 7.0 | 0.00 | 0.00 | 0.00 | 74 | 1011.6 |
| 20260507052307 | 54 | 52 | 4.0 | 9.0 | 0.00 | 0.00 | 0.00 | 74 | 1011.7 |
| 20260507051804 | 54 | 48 | 5.0 | 7.0 | 0.00 | 0.00 | 0.00 | 74 | 1011.7 |
| 20260507051301 | 54 | 24 | 2.0 | 9.0 | 0.00 | 0.00 | 0.00 | 75 | 1011.7 |
| 20260507050753 | 54 | 41 | 3.0 | 9.0 | 0.00 | 0.00 | 0.00 | 75 | 1011.4 |
| 20260507050249 | 54 | 58 | 2.0 | 7.0 | 0.00 | 0.00 | 0.00 | 76 | 1011.6 |
| 20260507045746 | 54 | 58 | 4.0 | 4.0 | 0.00 | 0.00 | 0.00 | 77 | 1011.5 |
| 20260507045243 | 54 | 56 | 4.0 | 7.0 | 0.00 | 0.00 | 0.00 | 78 | 1011.4 |
| 20260507044740 | 54 | 53 | 2.0 | 4.0 | 0.00 | 0.00 | 0.00 | 78 | 1011.3 |
| 20260507044236 | 54 | 26 | 3.0 | 4.0 | 0.00 | 0.00 | 0.00 | 78 | 1011.1 |
| 20260507043732 | 54 | 50 | 2.0 | 3.0 | 0.00 | 0.00 | 0.00 | 79 | 1011.2 |
| 20260507043229 | 54 | 35 | 4.0 | 6.0 | 0.00 | 0.00 | 0.00 | 79 | 1011.1 |
| 20260507042725 | 53 | 71 | 4.0 | 6.0 | 0.00 | 0.00 | 0.00 | 80 | 1011.3 |
| 20260507042225 | 53 | 48 | 2.0 | 6.0 | 0.00 | 0.00 | 0.00 | 80 | 1011.4 |
| 20260507041723 | 54 | 66 | 3.0 | 6.0 | 0.00 | 0.00 | 0.00 | 80 | 1011.1 |
| 20260507041220 | 54 | 48 | 4.0 | 8.0 | 0.00 | 0.00 | 0.00 | 77 | 1011.3 |
| 20260507040717 | 55 | 47 | 4.0 | 7.0 | 0.00 | 0.00 | 0.00 | 78 | 1011.3 |
| 20260507040213 | 55 | 347 | 6.0 | 10.0 | 0.00 | 0.00 | 0.00 | 78 | 1011.3 |
| 20260507035709 | 55 | 75 | 6.0 | 10.0 | 0.00 | 0.03 | 0.03 | 78 | 1011.2 |
| 20260507035205 | 55 | 49 | 4.0 | 7.0 | 0.00 | 0.03 | 0.03 | 78 | 1010.6 |
| 20260507034702 | 55 | 62 | 2.0 | 3.0 | 0.00 | 0.03 | 0.03 | 79 | 1010.7 |
| 20260507034159 | 55 | 45 | 5.0 | 10.0 | 0.00 | 0.03 | 0.03 | 78 | 1011.5 |
| 20260507033658 | 55 | 57 | 7.0 | 14.0 | 0.00 | 0.03 | 0.03 | 79 | 1011.7 |
| 20260507033154 | 56 | 67 | 4.0 | 9.0 | 0.00 | 0.03 | 0.03 | 79 | 1011.7 |
| 20260507032652 | 56 | 42 | 5.0 | 7.0 | 0.00 | 0.03 | 0.03 | 79 | 1011.6 |
| 20260507032147 | 56 | 68 | 1.0 | 2.0 | 0.00 | 0.03 | 0.03 | 78 | 1010.9 |
| 20260507031645 | 56 | 81 | 2.0 | 3.0 | 0.00 | 0.03 | 0.03 | 78 | 1010.7 |
| 20260507031141 | 56 | 48 | 3.0 | 4.0 | 0.00 | 0.03 | 0.03 | 79 | 1011.0 |
| 20260507030638 | 57 | 82 | 4.0 | 7.0 | 0.00 | 0.03 | 0.03 | 79 | 1011.2 |
| 20260507030136 | 57 | 52 | 2.0 | 3.0 | 0.00 | 0.03 | 0.03 | 79 | 1011.2 |
| 20260507025633 | 57 | 64 | 3.0 | 4.0 | 0.00 | 0.03 | 0.03 | 79 | 1011.2 |
| 20260507025129 | 57 | 33 | 3.0 | 4.0 | 0.00 | 0.03 | 0.03 | 79 | 1011.6 |
| 20260507024628 | 57 | 18 | 3.0 | 8.0 | 0.00 | 0.03 | 0.03 | 79 | 1011.7 |
| 20260507024124 | 57 | 48 | 4.0 | 6.0 | 0.00 | 0.03 | 0.03 | 79 | 1011.2 |
| 20260507023620 | 57 | 44 | 3.0 | 4.0 | 0.00 | 0.03 | 0.03 | 78 | 1010.7 |
| 20260507023118 | 58 | 49 | 2.0 | 3.0 | 0.00 | 0.03 | 0.03 | 78 | 1011.0 |
| 20260507022614 | 58 | 37 | 4.0 | 7.0 | 0.00 | 0.03 | 0.03 | 78 | 1011.0 |
| 20260507022110 | 58 | 35 | 2.0 | 3.0 | 0.00 | 0.03 | 0.03 | 78 | 1010.6 |
| 20260507021606 | 58 | 72 | 3.0 | 4.0 | 0.00 | 0.03 | 0.03 | 78 | 1010.6 |
| 20260507021102 | 58 | 51 | 1.0 | 3.0 | 0.00 | 0.03 | 0.03 | 77 | 1010.7 |
| 20260507020601 | 58 | 54 | 2.0 | 2.0 | 0.00 | 0.03 | 0.03 | 78 | 1010.8 |
| 20260507020056 | 58 | 67 | 2.0 | 3.0 | 0.00 | 0.03 | 0.03 | 77 | 1010.4 |
| 20260507015555 | 58 | 71 | 2.0 | 4.0 | 0.00 | 0.03 | 0.03 | 77 | 1011.0 |
| 20260507015052 | 58 | 29 | 2.0 | 4.0 | 0.00 | 0.03 | 0.03 | 77 | 1010.6 |
| 20260507014549 | 58 | 47 | 3.0 | 7.0 | 0.00 | 0.03 | 0.03 | 77 | 1010.5 |
| 20260507014044 | 59 | 48 | 5.0 | 7.0 | 0.00 | 0.03 | 0.03 | 76 | 1010.0 |
| 20260507013541 | 59 | 47 | 4.0 | 6.0 | 0.00 | 0.03 | 0.03 | 76 | 1010.2 |
| 20260507013039 | 59 | 55 | 1.0 | 1.0 | 0.00 | 0.03 | 0.03 | 77 | 1010.1 |
| 20260507012536 | 59 | 44 | 1.0 | 2.0 | 0.00 | 0.03 | 0.03 | 77 | 1010.2 |
| 20260507012027 | 59 | 99 | 2.0 | 3.0 | 0.00 | 0.03 | 0.03 | 76 | 1010.2 |
| 20260507011524 | 59 | 68 | 2.0 | 6.0 | 0.00 | 0.03 | 0.03 | 76 | 1010.3 |
| 20260507011020 | 59 | 61 | 3.0 | 3.0 | 0.00 | 0.03 | 0.03 | 77 | 1010.4 |
| 20260507010514 | 59 | 65 | 2.0 | 3.0 | 0.00 | 0.03 | 0.03 | 77 | 1010.4 |
| 20260507010006 | 59 | 44 | 1.0 | 2.0 | 0.00 | 0.03 | 0.03 | 79 | 1010.2 |
| 20260507005503 | 60 | 85 | 0.0 | 1.0 | 0.00 | 0.03 | 0.03 | 78 | 1010.2 |
| 20260507004959 | 60 | 67 | 2.0 | 3.0 | 0.00 | 0.03 | 0.03 | 77 | 1009.8 |
| 20260507004456 | 60 | 58 | 2.0 | 3.0 | 0.00 | 0.03 | 0.03 | 78 | 1009.8 |
| 20260507003954 | 60 | 48 | 2.0 | 4.0 | 0.00 | 0.03 | 0.03 | 78 | 1009.5 |
| 20260507003448 | 60 | 21 | 3.0 | 3.0 | 0.00 | 0.03 | 0.03 | 79 | 1009.6 |
| 20260507002943 | 60 | 46 | 2.0 | 8.0 | 0.00 | 0.03 | 0.03 | 78 | 1009.9 |